This is the latest recevied weather packets stored in our database for station/object KS5S. If no packets are shown the sender has not sent any weather packets the latest 10 day(s).
| Time | Temp. | Humidity | Pressure | Rain* | Wind** | Luminosity | Snow |
|---|---|---|---|---|---|---|---|
| 1778032757 | 25.56° C | 67% | 1004.3 hPa | 0 mm | - | 0 W/m² | - |
| 1778032454 | 25.56° C | 67% | 1004 hPa | 0 mm | - | 0 W/m² | - |
| 1778032151 | 25.56° C | 67% | 1003.7 hPa | 0 mm | - | 0 W/m² | - |
| 1778031848 | 25.56° C | 66% | 1003.9 hPa | 0 mm | - | 0 W/m² | - |
| 1778031544 | 26.11° C | 66% | 1003.5 hPa | 0 mm | - | 0 W/m² | - |
| 1778031243 | 26.11° C | 67% | 1003.8 hPa | 0 mm | - | 0 W/m² | - |
| 1778030938 | 26.11° C | 66% | 1003.7 hPa | 0 mm | - | 0 W/m² | - |
| 1778030635 | 26.11° C | 67% | 1003.3 hPa | 0 mm | - | 0 W/m² | - |
| 1778030332 | 26.11° C | 65% | 1003.2 hPa | 0 mm | - | 0 W/m² | - |
| 1778030029 | 26.67° C | 65% | 1003.3 hPa | 0 mm | - | 0 W/m² | - |
| 1778029726 | 26.67° C | 65% | 1003.7 hPa | 0 mm | - | 1 W/m² | - |
| 1778029425 | 26.67° C | 65% | 1003.4 hPa | 0 mm | - | 2 W/m² | - |
| 1778029121 | 26.67° C | 66% | 1003.2 hPa | 0 mm | - | 5 W/m² | - |
| 1778028818 | 26.67° C | 66% | 1003 hPa | 0 mm | - | 6 W/m² | - |
| 1778028514 | 26.67° C | 66% | 1002.7 hPa | 0 mm | - | 13 W/m² | - |
| 1778028212 | 26.67° C | 66% | 1002.9 hPa | 0 mm | - | 17 W/m² | - |
| 1778027907 | 26.67° C | 66% | 1002.9 hPa | 0 mm | - | 27 W/m² | - |
| 1778027604 | 26.67° C | 65% | 1002.9 hPa | 0 mm | - | 34 W/m² | - |
| 1778027300 | 27.22° C | 65% | 1002.9 hPa | 0 mm | - | 31 W/m² | - |
| 1778026997 | 28.33° C | 65% | 1002.8 hPa | 0 mm | - | 38 W/m² | - |
| 1778026693 | 28.89° C | 64% | 1003 hPa | 0 mm | - | 42 W/m² | - |
| 1778026390 | 29.44° C | 71% | 1002.7 hPa | 0 mm | - | 78 W/m² | - |
| 1778026087 | 29.44° C | 76% | 1002.7 hPa | 0 mm | - | 67 W/m² | - |
| 1778025784 | 29.44° C | 75% | 1002.6 hPa | 0 mm | - | 64 W/m² | - |
| 1778025481 | 29.44° C | 75% | 1002.3 hPa | 0 mm | - | 63 W/m² | - |
* Rain latest hour (hover to see other rain measurements)
** Current wind speed in m/s (hover to see current wind gust speed)